National Oceanic Atmosphere Administration National Weather Service Headquarters National Weather Service Headquarters
NOAA logo WFO Anchorage Scalable transition graphic NWS logo
Transition from title bar to navgation bar   Aviation Weather 01 AKDT 
blankspace Home   |   Mobile   |   Social Media   |   Mesonet   |   Surface Map   |   Radar   |   Submit Storm Reports   |   News =09 GMT 

LocalForecast by City, St or Zip Code

spacer

Forecasts/Products
  Public
  Forecast Discussion
    - With Glossary
  Aviation
  Marine
  Hydrology(RFC)
  Rivers & Lakes AHPS
  Ice Desk
  TV Weather
  Fire Weather
  Avalanche
  Travel 511
  Graphical
  xml logo RSS Feeds
  Marine FTPMail

spacer

Data
  Mesonet
  Model Graphics
  Local Model
  Observations
  Marine Obs
  Satellite/Radar
  Vent Factor
  Soaring Index
  Weather Links

spacer

Climate
  PAFC Climate
  Interactive Climate
  PAFC Records
  Local
  National
  More

spacer

Outreach
  About Us
  Community Outreach
  Kids' Page
  Tour/Speaker Request
  Weather Classroom
  Social Media

spacer

Reports
  COOP Observers
  Local Storm Reports
  Spotter Page
  Submit a Storm Report

spacer

Miscellaneous
  Archived Alaska Weather Stories
  Student Career Opportunities
  Research Papers

spacer

Print Friendly/
Low Bandwidth

  Public Forecasts
  Marine Forecasts

spacer

Contact Us
  mailto pafcweb

spacer

Facebook Follow the National Weather Service in Alaska on Twitter
USA.gov is the U.S. government's official web portal to all federal, state and local government web resources and services.


 ICAO ID:   AAWU Graphics

Internet access to TAFs and METAR observations is for planning purposes only. We can not guarantee the timeliness of internet products. Before flying please get a formal pilot briefing (1-800-992-7433) and ALWAYS file a Flight Plan!Pilot briefings are provided to licensed aircraft pilots, ONLY! Others may not use the above number to obtain weather information.

Check out the Key to TAFs and METARs for help with decoding the information.

A 12 hour summary of TAFs can be found here.

PAKN TAF
PAKN 250530Z 2506/2606  VRB03KT P6SM VCFG SCT005 SCT015
      TEMPO 2508/2512 2SM BR BKN005 BKN015
     FM251200 VRB03KT 2SM BR BKN005 BKN015
     FM251900 VRB03KT P6SM SCT015 BKN200
     FM260500 16007KT P6SM VCSH BKN050=


METAR PAKN 250854Z 04003KT 10SM CLR M08/M09 A3000 RMK AO2 SLP161
     T10831094 400441083 50002=
METAR PAKN 250854Z 04003KT 10SM CLR M08/M09 A3000=
METAR PAKN 250754Z 00000KT 10SM CLR M08/M08 A3001 RMK AO2 SLP163 I1001
     T10781083=
METAR PAKN 250754Z 00000KT 10SM CLR M08/M08 A3001=
METAR PAKN 250654Z 34003KT 10SM CLR M06/M06 A3001 RMK AO2 SLP162 I1000
     T10561061=
METAR PAKN 250654Z 34003KT 10SM CLR M06/M06 A3001=
METAR PAKN 250554Z 35003KT 10SM CLR M05/M06 A3000 RMK AO2 SLP158
 I1000 I6000 T10501056 10039 21050 50002=
METAR PAKN 250554Z 35003KT 10SM CLR M05/M06 A3000=


National Weather Service
Anchorage Forecast Office
6930 Sand Lake Road
Anchorage, Ak 99502
(907) 266-5105 M-F/7-5pm
About Us
Career Opportunities
Glossary
Disclaimer
Privacy Policy
Credits
Alaska Weather Information Line:
1-800-472-0391